Tracking 19634 objects as of 21-May-2019
HD Live streaming from Space Station
objects crossing your sky now

JCSAT 2

Track JCSAT 2 now!
JCSAT 2 is classified as:


NORAD ID: 20402
Int'l Code: 1990-001B
Perigee: 36,023.6 km
Apogee: 36,549.0 km
Inclination: 13.9 °
Period: 1,461.3 minutes
Semi major axis: 42657 km
RCS: 1 m2 (large)
Launch date: January 1, 1990
Source: Japan (JPN)
Launch site: AIR FORCE EASTERN TEST RANGE (AFETR)
aabbcc
Your satellite tracking list
Your tracking list is empty




NASA's NSSDC Master Catalog

Two Line Element Set (TLE):
1 20402U 90001B   19140.55481285 -.00000261 +00000-0 +00000-0 0  9991
2 20402 013.8568 032.5247 0061595 262.9795 290.9036 00.98540086089860
Source of the keplerian elements: AFSPC